Lid_Strength_Index
19 19 22 22 19 18 19 19 21 19 17 18 20 20 18 18 18 18 18 19 19 19 17 16 15 15 15 16 16 16 16 16 16 16 17 16 17 16 16 15 15 16 16 16
19 22 21 19 17 18 19 20 20 19 18 19 20 20 18 19 19 19 18 19 19 19 18 17 16 17 17 17 17 17 17 16 16 16 16 17 17 17 16 15 15 14 14 13
21 21 18 18 19 19 20 20 20 20 18 20 20 20 21 19 19 19 18 18 18 18 17 17 16 15 16 16 16 15 15 15 15 14 14 14 14 14 14 14 13 12 12 12
22 20 19 19 20 19 20 18 18 18 20 26 19 26 21 20 20 19 18 19 18 18 17 17 17 16 16 15 15 15 14 14 13 13 13 14 15 15 15 14 13 13 13 13
22 22 20 20 19 19 19 18 18 18 21 23 22 28 23 21 20 19 19 19 18 17 17 17 17 16 16 16 16 15 15 14 14 14 14 14 14 14 14 14 14 14 13 13
22 21 21 20 19 18 17 19 19 20 22 30 26 26 23 21 19 19 18 18 17 18 17 16 16 17 17 16 16 16 15 14 14 14 14 14 15 15 15 15 15 14 14 14
22 22 22 20 20 19 18 21 28 27 29 27 25 27 21 20 19 18 17 17 17 17 17 17 17 17 17 17 17 16 15 15 14 14 14 14 14 15 15 15 15 15 15 15
24 23 22 21 22 22 21 22 27 31 29 27 25 27 20 19 19 18 17 17 17 17 17 16 16 16 17 17 17 16 15 15 15 14 14 14 14 15 15 15 15 15 15 15
25 23 23 21 21 22 23 24 23 32 40 32 26 23 20 20 19 18 18 18 18 18 17 16 16 16 16 16 16 16 15 15 15 14 14 15 15 15 15 15 15 15 15 14
21 25 22 22 22 22 22 21 26 30 30 32 27 27 22 20 19 19 18 18 17 17 17 17 16 16 16 16 16 16 16 15 15 15 15 14 15 15 15 15 15 15 15 15
22 22 24 23 24 24 25 25 25 26 27 29 31 25 21 19 18 18 17 16 16 16 17 16 16 16 16 16 16 16 16 16 16 16 15 15 15 15 15 15 15 15 15 15
20 24 29 24 25 24 24 24 23 26 27 29 28 25 19 19 18 19 18 17 16 16 16 16 16 16 17 16 16 16 16 16 16 15 16 15 15 16 16 16 15 15 15 15
21 25 30 25 24 24 25 24 23 28 28 30 27 22 20 20 19 18 19 18 17 16 17 17 17 17 16 16 16 16 16 16 15 16 16 16 16 16 16 15 15 15 15 15
18 25 24 21 22 23 27 25 24 25 30 26 24 20 18 19 20 19 18 18 18 18 16 16 17 16 16 15 15 15 15 15 16 16 16 16 16 15 15 15 15 15 15 15
21 26 27 26 24 25 24 23 24 25 22 24 19 21 18 17 16 17 16 17 18 18 18 17 16 16 16 16 15 15 15 15 16 16 16 15 15 15 15 15 15 15 15 15
22 27 28 27 27 24 24 23 23 23 21 22 20 21 16 17 18 17 18 17 17 17 17 17 16 15 16 15 15 15 15 15 15 16 16 15 16 15 16 16 15 16 15 16
25 27 29 23 29 27 24 25 22 20 21 20 23 19 17 18 17 17 17 17 17 16 16 17 16 16 15 15 14 15 15 15 16 16 16 16 16 16 16 16 16 16 17 16
26 27 25 29 30 28 21 23 20 20 19 19 19 17 16 15 14 17 17 16 16 16 16 16 15 16 15 14 15 14 15 16 16 16 16 16 16 16 16 16 17 17 17 18
22 23 24 23 29 21 21 24 22 22 20 18 19 18 17 15 18 16 17 16 15 15 15 15 15 15 15 15 15 15 16 16 16 16 17 17 17 17 17 18 18 18 19 19
24 24 21 29 24 25 20 17 20 20 23 16 17 17 16 18 21 17 15 15 16 15 15 15 16 16 16 16 16 16 16 17 17 18 17 18 19 18 19 20 20 20 20 20
33 33 25 23 22 20 19 20 18 22 20 16 15 16 16 18 16 14 18 17 17 16 16 18 18 17 16 17 16 17 18 17 17 19 20 20 20 21 20 21 21 21 21 21
26 27 30 26 25 24 19 21 19 16 15 15 17 16 16 16 15 16 16 17 17 18 20 17 18 18 19 17 17 18 18 19 20 20 21 22 22 21 21 22 23 22 22 24
22 19 19 20 20 18 19 17 16 16 15 15 16 16 16 17 17 16 16 17 17 17 18 18 18 19 19 18 17 18 19 20 20 21 22 22 22 21 21 22 23 24 23 24
18 15 17 16 16 15 15 15 17 16 16 15 15 15 16 16 16 17 17 18 18 17 18 19 19 19 20 19 18 17 19 19 19 21 22 22 22 22 22 20 21 22 24 25
14 14 16 16 15 14 14 12 12 12 12 13 14 15 15 15 16 16 15 17 17 17 17 18 18 18 18 19 20 19 19 19 20 21 21 21 22 22 22 22 22 21 22 21
12 14 15 16 12 12 13 11 11 11 11 11 13 13 15 15 15 15 16 16 17 17 17 17 18 18 19 20 21 21 19 18 20 21 21 21 22 22 22 23 25 19 19 19